CFESAT

Last updated on Sat Nov 12 2022 00:03:40 GMT+0000 (Coordinated Universal Time)

1 30777U 07006F 22315.64172192 .05013523 18681-5 14098-2 0 9994 2 30777 35.4036 28.1161 0004854 57.4326 69.0309 16.26602520872244

Satellite not in orbit